Location: Unspecified
(0.0000°N, 0.0000°E)
Time: 02:51:47
(UTC+00:00)

Vanguard 2 - Pass Details

Date: 17 December 2017
Orbit: 553 x 2940 km, 32.9° (Epoch: 20 January)

Event Time Altitude Azimuth Distance (km) Brightness Sun altitude
Rises 09:17:16 0° 229° (SW) 6,688 12.2 44.9°
Reaches altitude 10° 09:21:42 10° 227° (SW) 5,752 12.0 45.8°
Maximum altitude 09:39:42 69° 146° (SE) 2,822 12.0 49.5°
Drops below altitude 10° 09:53:18 10° 65° (ENE) 4,517 11.8 52.1°
Sets 09:56:18 0° 62° (ENE) 5,244 12.0 52.7°
